Weather reports worldwide

Advertisment
Rheinstetten, Germany (10731): temperature & dewpoint: 06.11.2019 17:00:00 - 12.11.2019 17:00:00 (CET)Rheinstetten, Germany (10731): temperature 5cm & temperature -5cm: 06.11.2019 17:00:00 - 12.11.2019 17:00:00 (CET)Rheinstetten, Germany (10731): temperature -20cm & temperature -100cm: 06.11.2019 17:00:00 - 12.11.2019 17:00:00 (CET)Rheinstetten, Germany (10731): wind speed & gusts: 06.11.2019 17:00:00 - 12.11.2019 17:00:00 (CET)Rheinstetten, Germany (10731): wind direction: 06.11.2019 17:00:00 - 12.11.2019 17:00:00 (CET)Rheinstetten, Germany (10731): reduced air pressure: 06.11.2019 17:00:00 - 12.11.2019 17:00:00 (CET)Rheinstetten, Germany (10731): visibility: 06.11.2019 17:00:00 - 12.11.2019 17:00:00 (CET)Rheinstetten, Germany (10731): sunshine duration: 06.11.2019 17:00:00 - 12.11.2019 17:00:00 (CET)Rheinstetten, Germany (10731): precipitation: 06.11.2019 17:00:00 - 12.11.2019 17:00:00 (CET)
Date & Time tt [°C] td [°C] tt 5cm [°C] tt -5cm [°C] tt -20cm [°C] tt -100cm [°C] ff [km/h] ff [kn] fx [km/h] fx [kn] dd ppp [hPa] vv [km] sd [min] rr [mm]
12.11.2019 17:00:00 7,6 3,2 5,9 6,7 7,6 10,9 10 5 22 12 SSW 1005,7 17 0 0,0
12.11.2019 16:00:00 8,4 2,5 7,7 7,0 7,6 10,9 18 10 35 19 SW 1005,4 47 0 0,0
12.11.2019 15:00:00 8,6 1,8 8,0 7,7 7,5 10,9 23 13 36 19 SSW 1005,5 66 1 0,0
12.11.2019 14:00:00 8,8 1,6 9,0 9,1 7,2 10,9 26 14 45 24 SSW 1005,8 49 35 0,0
12.11.2019 13:00:00 8,7 1,9 9,0 8,3 6,9 10,9 28 15 47 25 SSW 1006,0 48 14 0,0
12.11.2019 12:00:00 8,5 2,3 8,8 8,0 6,4 10,9 24 13 40 22 SSW 1007,0 59 31 0,0
12.11.2019 11:00:00 7,9 2,5 8,8 7,1 6,1 11,0 27 15 43 23 SSW 1007,6 55 59 0,0
12.11.2019 10:00:00 7,4 2,3 8,0 5,8 5,9 11,0 23 13 39 21 SW 1007,9 57 60 0,0
12.11.2019 09:00:00 6,0 1,5 6,4 4,1 5,9 11,0 10 5 16 9 S 1008,5 61 53 0,0
12.11.2019 08:00:00 5,3 2,3 3,7 3,6 6,0 11,0 13 7 32 17 SSW 1008,6 54 0 0,0
12.11.2019 07:00:00 6,1 2,3 4,9 4,2 6,1 11,0 23 12 35 19 SW 1008,3 52 0 0,0
12.11.2019 06:00:00 5,9 2,7 4,8 4,4 6,2 11,0 15 8 29 16 SW 1008,6 68 0 0,0
12.11.2019 05:00:00 6,5 3,0 5,8 4,8 6,2 11,0 20 11 31 17 SW 1008,7 58 0 0,0
12.11.2019 04:00:00 6,0 3,6 5,2 4,7 6,2 11,0 17 9 28 15 SW 1008,9 55 0 0,0
12.11.2019 03:00:00 6,1 4,0 4,9 4,6 6,2 11,1 18 10 31 17 SW 1009,0 47 0 0,0
12.11.2019 02:00:00 5,8 4,1 4,8 4,4 6,3 11,1 22 12 34 18 SW 1008,8 47 0 0,0
12.11.2019 01:00:00 5,5 3,9 4,3 4,6 6,3 11,1 21 11 36 19 SW 1008,6 39 0 0,0
12.11.2019 00:00:00 5,9 4,3 5,1 4,9 6,3 11,1 24 13 31 17 SW 1008,5 33 0 0,2
11.11.2019 23:00:00 4,2 3,3 3,9 4,7 6,3 11,1 5 3 10 6 SW 1007,9 11 0 0,5
11.11.2019 22:00:00 3,4 2,7 3,3 4,5 6,3 11,1 1 1 9 5 E 1007,7 16 0 0,6
11.11.2019 21:00:00 3,5 2,4 3,3 4,4 6,4 11,1 3 2 6 4 WNW 1007,8 12 0 0,0
11.11.2019 20:00:00 2,8 2,0 2,6 4,2 6,5 11,2 4 2 10 5 E 1007,3 18 0 0,0
11.11.2019 19:00:00 2,5 1,4 0,9 4,3 6,7 11,2 4 2 7 4 ENE 1007,7 15 0 0,0
11.11.2019 18:00:00 3,1 1,6 1,8 4,9 6,8 11,2 4 2 9 5 E 1008,0 13 0 0,0
11.11.2019 17:00:00 3,6 1,7 3,4 5,5 6,8 11,2 6 3 13 7 SE 1008,2 25 0 0,0
11.11.2019 16:00:00 3,6 1,2 4,0 5,9 6,8 11,2 2 1 6 4 E 1009,0 25 0 0,0
11.11.2019 15:00:00 3,5 1,2 4,0 6,0 6,7 11,2 1 1 7 4 SSW 1009,3 24 0 0,0
11.11.2019 14:00:00 3,3 0,9 3,9 5,8 6,7 11,2 3 2 10 5 SSW 1009,9 31 0 0,0
11.11.2019 13:00:00 2,9 1,3 3,7 5,6 6,6 11,3 7 4 13 7 SSE 1010,9 22 0 0,0
11.11.2019 12:00:00 2,5 1,3 3,2 5,3 6,6 11,3 7 4 17 9 SSW 1012,2 16 0 0,0
11.11.2019 11:00:00 2,0 1,3 2,7 5,1 6,6 11,3 11 6 19 10 SSW 1013,1 8 0 0,0
11.11.2019 10:00:00 2,5 1,4 2,9 5,0 6,6 11,3 13 7 18 10 WSW 1013,7 12 0 0,0
11.11.2019 09:00:00 3,1 1,4 3,4 5,0 6,7 11,3 7 4 13 7 S 1014,3 14 0 0,0
11.11.2019 08:00:00 3,3 1,8 3,5 5,0 6,7 11,3 6 3 9 5 SSE 1014,6 13 0 0,0
11.11.2019 07:00:00 3,5 1,7 3,5 5,0 6,8 11,3 8 4 12 6 SSW 1015,0 15 0 0,0
11.11.2019 06:00:00 3,3 2,1 3,4 5,1 6,8 11,4 2 1 12 6 S 1015,3 11 0 0,0
11.11.2019 05:00:00 3,4 1,9 3,5 5,2 6,9 11,4 9 5 14 8 E 1015,6 13 0 0,0
11.11.2019 04:00:00 4,1 2,5 4,1 5,4 7,0 11,4 6 3 10 5 NE 1016,2 13 0 0,0
11.11.2019 03:00:00 4,1 3,0 4,1 5,5 7,0 11,4 5 3 8 5 E 1015,8 10 0 0,0
11.11.2019 02:00:00 4,1 2,5 4,2 5,5 7,0 11,4 4 2 8 4 NNE 1016,4 11 0 0,0
11.11.2019 01:00:00 4,0 3,1 4,1 5,5 7,1 11,5 5 3 10 6 NE 1017,0 7 0 0,0
11.11.2019 00:00:00 3,9 3,0 4,0 5,6 7,2 11,5 8 4 12 6 NE 1017,3 6 0 0,0
10.11.2019 23:00:00 3,9 3,0 4,1 5,7 7,3 11,5 8 4 11 6 N 1017,3 6 0 0,0
10.11.2019 22:00:00 4,1 3,1 4,2 5,8 7,4 11,5 7 4 11 6 NNE 1017,1 8 0 0,0
10.11.2019 21:00:00 4,1 3,0 4,3 5,9 7,5 11,5 10 5 15 8 NNE 1016,9 8 0 0,0
10.11.2019 20:00:00 4,6 3,5 4,6 6,2 7,5 11,6 8 4 11 6 NE 1017,1 8 0 0,0
10.11.2019 19:00:00 4,6 3,3 4,8 6,5 7,6 11,6 5 3 8 4 NE 1017,0 12 0 0,0
10.11.2019 18:00:00 4,5 3,2 4,7 6,8 7,7 11,6 4 2 10 6 SE 1016,3 13 0 0,0
10.11.2019 17:00:00 4,6 3,3 4,9 7,3 7,8 11,6 8 5 13 7 SSW 1015,6 13 0 0,0
10.11.2019 16:00:00 5,1 3,9 5,7 8,1 7,7 11,7 10 5 12 7 SW 1014,7 13 0 0,0
10.11.2019 15:00:00 4,9 3,5 6,0 9,2 7,4 11,7 12 7 16 9 SW 1014,0 12 16 0,0
10.11.2019 14:00:00 5,7 3,7 7,9 9,9 6,8 11,7 13 7 16 9 SW 1013,5 19 60 0,0
10.11.2019 13:00:00 5,6 2,9 8,2 9,6 6,0 11,7 9 5 16 9 WSW 1013,3 22 60 0,0
10.11.2019 12:00:00 5,8 1,1 7,7 7,8 5,3 11,7 4 2 10 6 N 1013,1 33 60 0,0
10.11.2019 11:00:00 3,9 1,0 6,0 5,2 4,8 11,8 6 4 10 6 N 1013,0 34 52 0,0
10.11.2019 10:00:00 2,3 0,5 4,2 3,0 4,6 11,8 3 2 5 3 ENE 1012,5 16 60 0,0
10.11.2019 09:00:00 0,0 -0,5 0,4 0,9 4,8 11,8 3 1 5 3 E 1012,1 9 41 0,0
10.11.2019 08:00:00 -1,9 -2,3 -3,4 0,9 5,0 11,8 2 1 6 4 E 1011,5 19 0 0,0
10.11.2019 07:00:00 -1,9 -2,1 -4,0 1,0 5,2 11,8 2 1 7 4 NNE 1010,9 14 0 0,0
10.11.2019 06:00:00 -1,6 -2,0 -3,5 1,1 5,4 11,8 3 2 7 4 NNE 1010,2 16 0 0,0
10.11.2019 05:00:00 -1,5 -1,6 -3,2 1,4 5,7 11,8 0 0 8 4 N 1009,9 13 0 0,0
10.11.2019 04:00:00 -1,4 -1,5 -3,0 1,8 6,0 11,8 3 2 5 3 NE 1009,6 2,6 0 0,0
10.11.2019 03:00:00 -1,0 -1,2 -1,8 2,3 6,2 11,8 3 2 4 2 SE 1009,9 1,3 0 0,0
10.11.2019 02:00:00 -0,5 -0,8 -0,9 2,4 6,5 11,9 0 0 5 3 N 1009,9 0,1 0 0,0
10.11.2019 01:00:00 -0,3 -0,6 -1,8 2,7 6,8 11,9 2 1 7 4 W 1009,8 18 0 0,0
10.11.2019 00:00:00 -0,3 -0,7 -1,5 3,1 7,2 11,9 4 2 7 4 NE 1009,8 26 0 0,0
09.11.2019 23:00:00 0,5 0,0 -0,8 3,7 7,5 11,9 3 2 8 4 E 1010,1 18 0 0,0
09.11.2019 22:00:00 1,4 1,3 -0,7 4,3 7,8 11,9 5 3 10 5 SE 1010,0 23 0 0,0
09.11.2019 21:00:00 2,2 1,7 1,7 5,0 8,2 11,9 8 5 10 5 SE 1010,4 17 0 0,0
09.11.2019 20:00:00 4,0 3,2 2,2 5,7 8,4 11,9 3 2 13 7 WNW 1010,5 18 0 0,0
09.11.2019 19:00:00 3,9 3,4 2,5 6,3 8,7 11,9 4 2 8 4 SE 1010,5 23 0 0,0
09.11.2019 18:00:00 6,4 4,0 3,8 7,5 8,9 12,0 4 2 8 5 E 1010,6 54 0 0,0
09.11.2019 17:00:00 8,0 3,7 6,3 8,3 8,9 12,0 5 3 16 9 S 1010,3 75 5 0,0
09.11.2019 16:00:00 8,9 3,0 8,0 9,5 8,8 12,0 13 7 19 10 SW 1010,5 70 25 0,0
09.11.2019 15:00:00 9,1 3,7 9,2 10,1 8,4 12,0 13 7 22 12 SW 1010,9 49 40 0,0
09.11.2019 14:00:00 9,2 4,3 11,2 9,4 8,1 12,0 7 4 14 8 SW 1011,1 35 16 0,0
09.11.2019 13:00:00 7,7 4,7 7,9 8,3 7,9 12,0 9 5 21 11 WSW 1011,6 43 7 0,0
09.11.2019 12:00:00 7,2 4,1 7,4 7,7 7,7 12,0 16 9 26 14 SW 1012,2 42 0 0,0
09.11.2019 11:00:00 6,9 4,4 7,5 7,3 7,5 12,1 16 9 27 15 SW 1012,5 30 6 0,0
09.11.2019 10:00:00 6,3 4,3 6,7 6,7 7,4 12,1 18 10 26 14 SW 1012,4 29 8 0,0
09.11.2019 09:00:00 5,7 4,1 5,4 5,9 7,4 12,1 16 9 25 13 WSW 1012,2 25 0 0,0
09.11.2019 08:00:00 5,6 4,1 5,1 5,6 7,5 12,1 16 9 24 13 SW 1011,6 31 0 0,0
09.11.2019 07:00:00 5,6 4,2 5,3 5,8 7,5 12,1 18 10 25 13 SW 1011,3 29 0 0,0
09.11.2019 06:00:00 5,8 4,2 5,5 5,9 7,5 12,1 17 9 29 16 SW 1010,9 31 0 0,0
09.11.2019 05:00:00 6,0 4,4 5,7 6,0 7,6 12,1 18 10 24 13 SW 1010,5 39 0 0,0
09.11.2019 04:00:00 5,4 4,1 5,2 6,0 7,6 12,2 12 6 17 9 SW 1010,4 44 0 0,0
09.11.2019 03:00:00 5,1 4,0 4,8 6,0 7,6 12,2 8 5 13 7 SW 1010,3 48 0 0,0
09.11.2019 02:00:00 5,0 4,2 4,9 6,1 7,6 12,2 7 4 14 8 S 1010,3 35 0 0,0
09.11.2019 01:00:00 5,1 4,2 4,8 6,2 7,7 12,2 12 7 17 9 SW 1010,0 34 0 0,3
09.11.2019 00:00:00 5,2 4,6 5,0 6,4 7,8 12,2 8 4 11 6 WSW 1010,0 9 0 0,7
08.11.2019 23:00:00 5,1 4,5 5,0 6,5 8,0 12,3 4 2 14 8 S 1009,8 12 0 0,4
08.11.2019 22:00:00 5,4 4,6 5,2 6,5 8,0 12,3 8 5 11 6 SW 1009,2 13 0 0,6
08.11.2019 21:00:00 5,6 4,8 5,4 6,6 8,1 12,3 5 3 6 4 SSW 1008,9 15 0 0,8
08.11.2019 20:00:00 5,8 3,9 5,2 6,7 8,1 12,4 2 1 10 6 NW 1008,5 17 0 1,5
08.11.2019 19:00:00 6,0 3,7 5,2 6,9 8,2 12,4 7 4 13 7 NNW 1008,1 14 0 1,9
08.11.2019 18:00:00 6,2 4,6 5,6 7,0 8,3 12,4 5 3 12 6 N 1007,4 11 0 2,1
08.11.2019 17:00:00 6,1 5,0 5,7 7,1 8,3 12,4 3 2 9 5 NE 1006,8 11 0 2,3
08.11.2019 16:00:00 6,3 4,8 5,8 7,3 8,3 12,5 6 3 19 11 N 1006,2 4,3 0 1,8
08.11.2019 15:00:00 6,6 4,1 5,9 7,6 8,4 12,5 13 7 27 14 NNE 1005,9 15 0 1,6
08.11.2019 14:00:00 6,9 5,7 6,6 7,9 8,5 12,5 7 4 13 7 N 1005,7 12 0 2,0
08.11.2019 13:00:00 7,1 5,7 6,9 8,0 8,5 12,5 9 5 13 7 N 1005,6 12 0 1,4
08.11.2019 12:00:00 7,3 5,5 7,1 7,8 8,3 12,5 6 3 13 7 NNE 1005,5 15 0 0,2
08.11.2019 11:00:00 7,3 5,9 7,0 7,4 8,2 12,6 8 4 13 7 NE 1005,9 19 0 0,0
08.11.2019 10:00:00 6,8 5,5 6,5 6,9 8,2 12,6 8 5 12 6 NNW 1005,8 32 0 0,0
08.11.2019 09:00:00 6,9 5,1 6,2 6,7 8,2 12,6 6 3 7 4 NNE 1005,4 44 0 0,0
08.11.2019 08:00:00 6,1 5,0 5,5 6,4 8,2 12,6 4 2 7 4 NE 1005,5 45 0 0,0
08.11.2019 07:00:00 6,1 4,9 5,3 6,3 8,2 12,6 4 2 9 5 NE 1005,3 44 0 0,0
08.11.2019 06:00:00 5,8 4,6 5,1 6,2 8,3 12,6 7 4 9 5 ENE 1005,2 50 0 0,0
08.11.2019 05:00:00 5,7 4,8 4,7 6,3 8,4 12,6 4 2 5 3 NNE 1005,5 52 0 0,0
08.11.2019 04:00:00 5,3 4,6 4,3 6,3 8,5 12,6 2 1 6 3 E 1005,6 51 0 0,0
08.11.2019 03:00:00 5,0 4,6 4,5 6,3 8,6 12,7 4 2 6 4 E 1006,0 38 0 0,0
08.11.2019 02:00:00 5,2 4,7 4,6 6,4 8,7 12,7 0 0 5 3 N 1006,3 49 0 0,0
08.11.2019 01:00:00 5,3 5,0 4,5 6,6 8,8 12,7 4 2 8 4 E 1006,2 44 0 0,0
08.11.2019 00:00:00 5,4 4,9 4,8 6,7 8,9 12,7 4 2 5 3 E 1006,4 41 0 0,0
07.11.2019 23:00:00 5,9 5,1 4,5 6,8 9,1 12,7 4 2 6 3 W 1006,1 56 0 0,0
07.11.2019 22:00:00 5,7 4,7 4,9 7,0 9,2 12,7 3 2 8 4 SE 1006,1 42 0 0,0
07.11.2019 21:00:00 7,6 4,9 6,0 7,3 9,4 12,7 6 3 16 9 S 1005,7 69 0 0,0
07.11.2019 20:00:00 8,2 5,3 7,1 7,5 9,6 12,7 12 6 22 12 SW 1005,2 66 0 0,0
07.11.2019 19:00:00 8,6 5,7 7,6 7,8 9,7 12,8 14 8 29 16 SSW 1004,7 64 0 0,0
07.11.2019 18:00:00 9,1 7,4 8,1 8,2 9,9 12,8 14 8 23 12 SSW 1004,2 75 0 0,0
07.11.2019 17:00:00 9,3 7,6 8,1 8,9 9,9 12,8 14 8 27 14 SSW 1003,2 62 0 0,0
07.11.2019 16:00:00 10,1 7,2 9,7 9,6 9,9 12,8 19 10 37 20 SSW 1002,5 61 0 0,1
07.11.2019 15:00:00 10,8 6,6 9,9 9,8 9,8 12,8 27 14 45 24 SW 1001,8 42 4 0,0
07.11.2019 14:00:00 11,2 5,9 10,7 9,6 9,6 12,8 27 14 44 24 SSW 1001,1 75 0 0,0
07.11.2019 13:00:00 9,2 6,1 8,5 9,6 9,4 12,8 10 5 17 9 SSE 1001,2 26 0 0,2
07.11.2019 12:00:00 8,8 6,0 7,9 9,1 9,3 12,8 15 8 31 17 S 1001,7 23 0 1,0
07.11.2019 11:00:00 10,9 4,7 10,7 9,3 9,0 12,8 13 7 18 10 SSW 1001,1 60 0 0,0
07.11.2019 10:00:00 9,6 6,0 9,4 8,2 8,8 12,8 6 3 11 6 ESE 1000,8 65 8 0,0
07.11.2019 09:00:00 7,2 5,6 6,7 6,9 8,8 12,8 5 3 7 4 E 1001,4 58 23 0,0
07.11.2019 08:00:00 4,5 4,0 3,5 6,0 9,0 12,8 0 0 7 4 N 1002,0 46 1 0,0
07.11.2019 07:00:00 5,1 4,5 2,7 6,4 9,2 12,9 3 2 8 4 ESE 1002,4 50 0 0,0
07.11.2019 06:00:00 5,8 5,2 5,4 7,0 9,4 12,9 6 3 9 5 ESE 1002,9 52 0 0,0
07.11.2019 05:00:00 4,7 4,4 3,7 6,6 9,7 12,9 3 2 5 3 ENE 1003,5 34 0 0,0
07.11.2019 04:00:00 6,2 5,5 3,3 7,3 9,9 12,9 3 1 5 3 SW 1003,4 66 0 0,0
07.11.2019 03:00:00 7,9 5,8 5,3 8,1 10,0 12,9 6 3 12 7 S 1003,7 58 0 0,0
07.11.2019 02:00:00 9,0 6,5 8,1 8,7 10,1 12,9 6 4 17 9 S 1004,3 65 0 0,0
07.11.2019 01:00:00 9,4 6,8 8,8 8,8 10,2 12,9 15 8 24 13 SW 1004,9 60 0 0,0
07.11.2019 00:00:00 9,3 6,7 8,8 8,9 10,3 12,9 15 8 25 13 WSW 1005,3 56 0 0,0
06.11.2019 23:00:00 9,5 6,7 9,0 8,9 10,3 12,9 18 10 25 13 SW 1005,5 75 0 0,0
06.11.2019 22:00:00 9,5 7,2 8,8 9,0 10,4 12,9 15 8 27 15 SW 1005,6 53 0 0,0
06.11.2019 21:00:00 9,3 7,7 8,6 9,2 10,5 12,9 16 9 26 14 SSW 1005,6 50 0 0,1
06.11.2019 20:00:00 9,5 7,5 8,5 9,4 10,6 12,9 16 9 29 16 SW 1005,6 53 0 0,0
06.11.2019 19:00:00 9,6 7,8 8,6 9,5 10,7 13,0 16 8 29 16 SW 1005,5 17 0 0,2
06.11.2019 18:00:00 9,5 8,6 9,0 9,9 10,8 13,0 10 5 16 8 SSW 1005,4 19 0 0,2
06.11.2019 17:00:00 10,2 8,0 9,6 10,3 10,9 13,0 11 6 23 12 SW 1005,2 53 0 0,0

tt = temperature
td = dewpoint
tt 5cm = temperature 5cm
tt -5cm = temperature -5cm
tt -20cm = temperature -20cm
tt -100cm = temperature -100cm
ff = wind speed
fx = gusts
dd = wind direction
ppp = reduced air pressure
vv = visibility
sd = sunshine duration
rr = precipitation

Next stations